Flag for U.S.A. Weather past 2 weeks in Little Rock, Arkansas, U.S.A.

Now
23 °F

Light snow. Ice fog.


Feels Like: 12 °F
Forecast: 21 / 35 °F
Wind: 12 mph from North

Location: Adams Field

Current Time: Mar 5, 2015 at 4:47:25 AM

Latest Report: Mar 5, 2015 at 3:53 AM


Visibility: 1 mi

Pressure: 30.42 "Hg

Humidity: 81%

Dew point: 18 °F

Location of Little RockLocation

Historic Weather in Little Rock — Graph

°F

Little Rock temperature yesterday

Maximum temperature yesterday: 53 °F (at 12:53 AM)
Minimum temperature yesterday: 25 °F (at 11:53 PM)
Average temperature yesterday: 42 °F

Past Weeks' High & Low Weather Summary

 TemperatureHumidityPressure
High59 °F (Feb 21, 7:53 AM)94% (Mar 3, 9:00 PM)30.68 "Hg (Mar 3, 9:00 PM)
Low19 °F (Feb 19, 3:53 AM)24% (Feb 18, 2:53 PM)29.77 "Hg (Feb 21, 4:01 AM)
Average34 °F71%30.27 "Hg
* Reported Feb 18 3:53 AM — Mar 5 3:53 AM, Little Rock, Weather by CustomWeather, © 2015

Note: Actual official high and low records may vary slightly from our data, if they occured in-between our weather recording intervals... More about our weather records

Advertising

Little Rock weather history for previous 24 hours

 ConditionsComfort  
Time TempWeatherWind HumidityBarometerVisibility
3:53 AM
Thu, Mar 5
23 °FLight snow. Ice fog.12 mph81%30.42 "Hg1 mi
3:02 AM23 °FLight snow. Ice fog.20 mph80%30.38 "Hg1 mi
2:53 AM23 °FSnow. Ice fog.20 mph81%30.39 "Hg1 mi
1:53 AM23 °FHeavy snow. Ice fog.18 mph85%30.39 "Hg0 mi
12:53 AM23 °FHeavy snow. Ice fog.18 mph85%30.33 "Hg0 mi
11:53 PM
Wed, Mar 4
25 °FLight snow. Ice fog.15 mph81%30.32 "Hg1 mi
10:59 PM27 °FSleet. Ice fog.17 mph80%30.29 "Hg3 mi
9:53 PM27 °FSleet. Ice fog.21 mph85%30.28 "Hg4 mi
8:53 PM29 °FSleet. Ice fog.18 mph85%30.24 "Hg2 mi
7:53 PM31 °FSleet. Ice fog.22 mph89%30.20 "Hg3 mi
6:53 PM32 °FSleet. Ice fog.14 mph92%30.18 "Hg3 mi
5:53 PM33 °FSleet. Fog.14 mph92%30.14 "Hg2 mi
4:53 PM34 °FSleet. Fog.18 mph92%30.12 "Hg2 mi
4:02 PM37 °FLight rain. Fog.18 mph93%30.08 "Hg2 mi
2:53 PM39 °FHeavy rain. Fog.13 mph93%30.05 "Hg2 mi
1:53 PM40 °FHeavy rain. Fog.17 mph89%30.03 "Hg2 mi
12:53 PM42 °FRain. Fog.16 mph92%30.02 "Hg2 mi
11:53 AM44 °FLight rain. Fog.16 mph89%30.01 "Hg3 mi
10:53 AM46 °FLight rain. Fog.18 mph89%30.00 "Hg5 mi
9:53 AM50 °FLight rain. Fog.14 mph89%29.98 "Hg4 mi
8:53 AM51 °FLight rain. Fog.8 mph92%29.97 "Hg3 mi
7:53 AM51 °FRain. Fog.7 mph89%29.94 "Hg1 mi
6:53 AM52 °FLight rain. Fog.6 mph89%29.91 "Hg1 mi
5:53 AM52 °FLight rain. Fog.No wind89%29.90 "Hg1 mi
4:53 AM52 °FLight rain. Fog.No wind93%29.89 "Hg1 mi
Weather by CustomWeather, © 2015

See weather overviewHow to use our weather pages